This is the latest recevied weather packets stored in our database for station/object HEBOWX. If no packets are shown the sender has not sent any weather packets the latest 10 day(s).
| Time | Temp. | Humidity | Pressure | Rain* | Wind** | Luminosity | Snow |
|---|---|---|---|---|---|---|---|
| 1777681219 | 9.44° C | 66% | 1013.1 hPa | 0 mm | - | - | - |
| 1777680919 | 10° C | 65% | 1013.1 hPa | 0 mm | - | - | - |
| 1777680619 | 10° C | 65% | 1013.2 hPa | 0 mm | - | - | - |
| 1777680319 | 10° C | 64% | 1013 hPa | 0 mm | - | - | - |
| 1777680019 | 10° C | 64% | 1013 hPa | 0 mm | - | - | - |
| 1777679719 | 10.56° C | 63% | 1013 hPa | 0 mm | - | - | - |
| 1777679419 | 10.56° C | 63% | 1013 hPa | 0 mm | - | - | - |
| 1777679119 | 10.56° C | 63% | 1013.1 hPa | 0 mm | - | - | - |
| 1777678819 | 10.56° C | 62% | 1013.1 hPa | 0 mm | - | - | - |
| 1777678519 | 10.56° C | 61% | 1013.2 hPa | 0 mm | - | - | - |
| 1777678219 | 10.56° C | 60% | 1013.3 hPa | 0 mm | - | - | - |
| 1777677919 | 10.56° C | 62% | 1013.4 hPa | 0 mm | - | - | - |
| 1777677619 | 10.56° C | 61% | 1013.3 hPa | 0 mm | - | - | - |
| 1777677319 | 11.11° C | 58% | 1013.4 hPa | 0 mm | - | - | - |
| 1777677019 | 11.11° C | 59% | 1013.3 hPa | 0 mm | - | - | - |
| 1777676719 | 11.11° C | 58% | 1013.3 hPa | 0 mm | - | - | - |
| 1777676419 | 11.11° C | 58% | 1013.5 hPa | 0 mm | - | - | - |
| 1777676119 | 11.11° C | 57% | 1013.7 hPa | 0 mm | - | - | - |
| 1777675819 | 11.11° C | 58% | 1013.6 hPa | 0 mm | - | - | - |
| 1777675520 | 11.67° C | 58% | 1013.6 hPa | 0 mm | - | - | - |
| 1777675220 | 11.67° C | 57% | 1014.1 hPa | 0 mm | - | - | - |
| 1777674919 | 11.67° C | 57% | 1013.6 hPa | 0 mm | - | - | - |
| 1777674619 | 11.67° C | 57% | 1014.1 hPa | 0 mm | - | - | - |
| 1777674321 | 11.67° C | 57% | 1013.7 hPa | 0 mm | - | - | - |
| 1777674021 | 11.67° C | 55% | 1013.7 hPa | 0 mm | - | - | - |
* Rain latest hour (hover to see other rain measurements)
** Current wind speed in m/s (hover to see current wind gust speed)